| time (UTC) | temp C | wind direction | speed KPH | gust KPH | rain 1hr cm | rain 24hr cm | rain mn cm | humidity % | barometer mb |
| 20260506103002 | 10 | 210 | 9.7 | 17.7 | 0.00 | 0.00 | 0.00 | 88 | 1011.7 |
| 20260506101600 | 9 | 238 | 11.3 | 17.7 | 0.00 | 0.00 | 0.00 | 88 | 1011.5 |
| 20260506100105 | 9 | 216 | 9.7 | 17.7 | 0.00 | 0.00 | 0.00 | 89 | 1011.6 |
| 20260506094612 | 9 | 213 | 11.3 | 19.3 | 0.00 | 0.00 | 0.00 | 88 | 1011.5 |
| 20260506093052 | 9 | 240 | 9.7 | 19.3 | 0.00 | 0.00 | 0.00 | 88 | 1011.3 |
| 20260506091550 | 9 | 239 | 9.7 | 19.3 | 0.00 | 0.00 | 0.00 | 88 | 1011.3 |
| 20260506090047 | 9 | 196 | 9.7 | 20.9 | 0.00 | 0.00 | 0.00 | 88 | 1011.5 |
| 20260506084551 | 9 | 190 | 11.3 | 19.3 | 0.00 | 0.00 | 0.00 | 87 | 1011.3 |
| 20260506083048 | 9 | 209 | 11.3 | 19.3 | 0.00 | 0.00 | 0.00 | 87 | 1011.3 |
| 20260506081544 | 9 | 230 | 9.7 | 17.7 | 0.00 | 0.00 | 0.00 | 87 | 1011.4 |
| 20260506073042 | 10 | 206 | 8.0 | 20.9 | 0.00 | 0.00 | 0.00 | 85 | 1011.0 |
| 20260506071537 | 10 | 217 | 8.0 | 17.7 | 0.00 | 0.00 | 0.00 | 85 | 1011.0 |
| 20260506061534 | 9 | 228 | 9.7 | 17.7 | 0.00 | 0.00 | 0.00 | 85 | 1010.7 |
| 20260506044535 | 10 | 233 | 11.3 | 20.9 | 0.00 | 0.00 | 0.00 | 84 | 1011.0 |
| 20260506043023 | 10 | 215 | 8.0 | 25.7 | 0.00 | 0.00 | 0.00 | 84 | 1010.9 |
| 20260506041517 | 10 | 232 | 9.7 | 19.3 | 0.00 | 0.00 | 0.00 | 84 | 1010.7 |
| 20260506040115 | 10 | 221 | 8.0 | 16.1 | 0.00 | 0.00 | 0.00 | 84 | 1010.6 |
| 20260506034513 | 10 | 197 | 9.7 | 20.9 | 0.00 | 0.00 | 0.00 | 84 | 1010.8 |
| 20260506033014 | 10 | 200 | 12.9 | 27.4 | 0.00 | 0.00 | 0.00 | 84 | 1010.6 |
| 20260506031513 | 10 | 221 | 6.4 | 14.5 | 0.00 | 0.00 | 0.00 | 84 | 1010.5 |
| 20260506030015 | 10 | 209 | 12.9 | 19.3 | 0.00 | 0.00 | 0.00 | 84 | 1010.7 |
| 20260506024517 | 10 | 202 | 6.4 | 17.7 | 0.00 | 0.00 | 0.00 | 83 | 1010.7 |
| 20260506023017 | 10 | 207 | 8.0 | 14.5 | 0.00 | 0.00 | 0.00 | 82 | 1010.6 |
| 20260506021510 | 11 | 196 | 8.0 | 14.5 | 0.00 | 0.00 | 0.00 | 81 | 1010.7 |
| 20260506020009 | 12 | 186 | 6.4 | 14.5 | 0.00 | 0.00 | 0.00 | 78 | 1010.8 |
| 20260506014513 | 12 | 238 | 4.8 | 16.1 | 0.00 | 0.00 | 0.00 | 78 | 1011.0 |
| 20260506013009 | 12 | 208 | 8.0 | 14.5 | 0.00 | 0.00 | 0.00 | 78 | 1010.8 |
| 20260506011525 | 12 | 213 | 4.8 | 11.3 | 0.00 | 0.00 | 0.00 | 78 | 1010.4 |
| 20260506010009 | 13 | 184 | 4.8 | 14.5 | 0.00 | 0.00 | 0.00 | 75 | 1010.5 |
| 20260506004516 | 13 | 244 | 4.8 | 16.1 | 0.00 | 0.00 | 0.00 | 74 | 1010.4 |
| 20260506003008 | 13 | 211 | 6.4 | 16.1 | 0.00 | 0.00 | 0.00 | 74 | 1010.3 |
| 20260506001606 | 13 | 229 | 4.8 | 17.7 | 0.00 | 0.00 | 0.00 | 72 | 1009.9 |
| 20260506000005 | 15 | 215 | 8.0 | 20.9 | 0.00 | 0.00 | 0.00 | 69 | 1009.4 |
| 20260505234504 | 16 | 207 | 11.3 | 24.1 | 0.00 | 0.00 | 0.00 | 66 | 1009.3 |
| 20260505233002 | 16 | 244 | 9.7 | 30.6 | 0.00 | 0.00 | 0.00 | 67 | 1009.2 |
| 20260505231559 | 13 | 227 | 19.3 | 32.2 | 0.00 | 0.00 | 0.00 | 77 | 1008.7 |
| 20260505230101 | 11 | 244 | 16.1 | 33.8 | 0.00 | 0.00 | 0.00 | 79 | 1007.7 |
| 20260505224558 | 12 | 221 | 16.1 | 37.0 | 0.00 | 0.00 | 0.00 | 79 | 1007.2 |
| 20260505223100 | 12 | 223 | 17.7 | 38.6 | 0.00 | 0.00 | 0.00 | 78 | 1007.0 |
| 20260505221605 | 12 | 240 | 19.3 | 43.5 | 0.00 | 0.00 | 0.00 | 78 | 1006.9 |
| 20260505220107 | 12 | 214 | 20.9 | 32.2 | 0.00 | 0.00 | 0.00 | 78 | 1006.7 |
| 20260505214600 | 12 | 223 | 19.3 | 33.8 | 0.00 | 0.00 | 0.00 | 78 | 1006.7 |
| 20260505213055 | 12 | 260 | 19.3 | 35.4 | 0.00 | 0.00 | 0.00 | 78 | 1006.5 |
| 20260505211554 | 12 | 204 | 17.7 | 35.4 | 0.00 | 0.00 | 0.00 | 78 | 1006.4 |
| 20260505210054 | 13 | 281 | 20.9 | 33.8 | 0.00 | 0.00 | 0.00 | 76 | 1006.6 |
| 20260505204558 | 13 | 217 | 19.3 | 40.2 | 0.00 | 0.00 | 0.00 | 75 | 1006.5 |
| 20260505203051 | 13 | 220 | 19.3 | 35.4 | 0.00 | 0.00 | 0.00 | 75 | 1006.6 |
| 20260505201551 | 13 | 193 | 19.3 | 33.8 | 0.00 | 0.00 | 0.00 | 75 | 1006.7 |
| 20260505200048 | 14 | 186 | 14.5 | 33.8 | 0.00 | 0.00 | 0.00 | 75 | 1006.9 |
| 20260505194556 | 13 | 232 | 16.1 | 30.6 | 0.00 | 0.00 | 0.00 | 77 | 1006.9 |
| 20260505193044 | 13 | 215 | 14.5 | 33.8 | 0.00 | 0.00 | 0.00 | 77 | 1007.4 |
| 20260505191541 | 13 | 223 | 16.1 | 35.4 | 0.00 | 0.00 | 0.00 | 77 | 1007.6 |
| 20260505190042 | 13 | 290 | 16.1 | 35.4 | 0.00 | 0.00 | 0.00 | 78 | 1008.0 |
| 20260505184538 | 13 | 215 | 16.1 | 33.8 | 0.00 | 0.00 | 0.00 | 76 | 1008.0 |
| 20260505183047 | 13 | 256 | 9.7 | 30.6 | 0.00 | 0.00 | 0.00 | 76 | 1008.0 |
| 20260505181537 | 13 | 187 | 12.9 | 29.0 | 0.00 | 0.00 | 0.00 | 76 | 1008.0 |
| 20260505180035 | 13 | 201 | 11.3 | 29.0 | 0.00 | 0.00 | 0.00 | 78 | 1008.1 |
| 20260505174533 | 13 | 186 | 12.9 | 35.4 | 0.00 | 0.00 | 0.00 | 75 | 1008.4 |
| 20260505173032 | 13 | 213 | 8.0 | 19.3 | 0.00 | 0.00 | 0.00 | 77 | 1008.7 |
| 20260505171528 | 13 | 227 | 12.9 | 22.5 | 0.00 | 0.00 | 0.00 | 75 | 1009.0 |
| 20260505170030 | 13 | 248 | 11.3 | 24.1 | 0.00 | 0.00 | 0.00 | 78 | 1009.7 |
| 20260505164531 | 12 | 205 | 12.9 | 22.5 | 0.00 | 0.00 | 0.00 | 77 | 1009.6 |
| 20260505163024 | 13 | 229 | 4.8 | 17.7 | 0.00 | 0.00 | 0.00 | 76 | 1009.9 |
| 20260505161519 | 13 | 153 | 9.7 | 24.1 | 0.00 | 0.00 | 0.00 | 77 | 1010.0 |
| 20260505153014 | 12 | 207 | 12.9 | 24.1 | 0.00 | 0.00 | 0.00 | 78 | 1010.8 |
| 20260505151511 | 12 | 184 | 12.9 | 22.5 | 0.00 | 0.00 | 0.00 | 80 | 1010.7 |
| 20260505124601 | 11 | 250 | 12.9 | 29.0 | 0.00 | 0.00 | 0.00 | 81 | 1010.6 |
| 20260505123056 | 11 | 229 | 12.9 | 24.1 | 0.00 | 0.00 | 0.00 | 82 | 1010.6 |
| 20260505121550 | 11 | 199 | 8.0 | 17.7 | 0.00 | 0.00 | 0.00 | 82 | 1010.6 |
| 20260505120100 | 10 | 202 | 9.7 | 19.3 | 0.00 | 0.00 | 0.00 | 82 | 1010.8 |
| 20260505114545 | 10 | 229 | 9.7 | 25.7 | 0.00 | 0.00 | 0.00 | 83 | 1011.1 |
| 20260505113101 | 10 | 206 | 14.5 | 24.1 | 0.00 | 0.00 | 0.00 | 83 | 1011.2 |
| 20260505111543 | 10 | 225 | 12.9 | 22.5 | 0.00 | 0.00 | 0.00 | 83 | 1011.2 |